THORAD DELTA 1 DEB, 8594

Orbit data source: Space-Track

THORAD DELTA 1 DEB, 8594 is space debris in SSO originally from a launch on Fri, 15 Nov 1974 UTC launched from the Air Force Western Test Range (AFWTR). Debris objects in space refer to the collection of defunct objects orbiting the Earth. Examples of debris include non-operational satellites, rocket bodies, and fragments generated from explosions, collisions, or faulty payload assembly.

Loading next visibility...
Identifier
8594, 1974-089DH
Orbit
SSO
Country
Flag of USUS
Related business
Manufacturer
Unknown
Mission
Spacecraft
Bus & Motor
Unknown
Mass
Unknown
Launch date (UTC)
1974-11-15 (51 years ago)
Launch vehicle
Unknown
Launch site
Air Force Western Test Range (AFWTR)
Object type
Payload
Rocket body
Debris
Shape & HBR
Unknown shape, 0.1 m
Radar Cross Section
Small (<0.1 m²)

Expand to show TLE details & history
Last TLE update: 9 hours ago

TLE from 9 hours ago
0 THORAD DELTA 1 DEB
1 08594U 74089DH  25287.83747117  .00000125  00000-0  80453-3 0  9997
2 08594 101.7308 247.9125 0131271 199.8039 188.4455 12.73144566362322
Epoch: 2025-10-14T20:05Z
TLE epoch observation values (Epoch: 2025-10-14T20:05:57.509Z)
Latitude
27.43529°
Longitude
-83.35531°
Altitude
1,472.888 km
Speed
7.083 km/s
True Right ascension
16h 07m 01s
True Declination
27° 18' 28"
Sunlit
Object was in daylight at epoch
Visualization orbit readout
Latitude
Unknown
Longitude
Unknown
Altitude
Unknown
Speed
Unknown
Apparent Right ascension
Unknown
Apparent Declination
Unknown
Sunlit
N/A
Visualization observer readout
Local Sidereal Time
23:21:40
Azimuth
Unknown
Elevation
Unknown
Doppler factor
Unknown
Orbital elements
Apogee altitude
1,468.339 km
Perigee altitude
1,265.005 km
Semi-major axis
7,744.809 km
Eccentricity
0.01313
Inclination
101.7308°
RAAN
247.9125°
Arg. of periapsis
199.8039°
True anomaly
188.2281°
Mean anomaly
188.4455°
Eccentric anomaly
188.33645°
Mean motion
3.1844 °/min
Orbital period
113.05 mins
BSTAR
0.00080453
Loading maneuver chart data...
Computing Atmospheric mass density...

Documentation

Showing up to 5 results
|